Location: Newark
(7.0858°N, 171.3717°E)
Time: 07:51:15
(UTC+00:00)

Courier 1B Rocket - Pass Details

Date: 30 November 2020
Orbit: 920 x 1202 km, 28.2° (Epoch: 17 January)

Event Time Altitude Azimuth Distance (km) Brightness Sun altitude
Rises 03:38:15 0° 259° (WSW) 3,674 8.9 34.2°
Reaches altitude 10° 03:43:24 10° 225° (SW) 2,664 8.7 33.1°
Maximum altitude 03:45:06 11° 209° (SSW) 2,570 8.3 32.8°
Drops below altitude 10° 03:46:48 10° 193° (SSW) 2,634 8.0 32.4°
Sets 03:51:48 0° 159° (SSE) 3,550 8.1 31.3°
